Location: Unspecified
(0.0000°N, 0.0000°E)
Time: 20:32:33
(UTC+00:00)

Altair 2 - Pass Details

Date: 12 October 2024
Orbit: 523 x 2152 km, 81.3° (Epoch: 11 November)

Event Time Altitude Azimuth Distance (km) Brightness Sun altitude
Rises 04:13:38 0° 1° (N) 5,563 11.4 -23.0°
Reaches altitude 10° 04:17:02 10° 4° (N) 4,627 10.9 -22.2°
Maximum altitude 04:29:25 71° 86° (E) 2,180 9.4 -19.1°
Drops below altitude 10° 04:40:21 10° 168° (SSE) 4,138 11.0 -16.4°
Sets 04:43:12 0° 170° (S) 4,961 11.4 -15.7°
